Flag for Norway Weather past 2 weeks in Kleppestø, Norway

Now
59 °F

Cool.


Feels Like: 60 °F
Forecast: 56 / 63 °F
Wind: 3 mph from South

Location: Bergen / Florida

Current Time: Sep 3, 2014 at 9:18:14 AM

Latest Report: Sep 3, 2014 at 8:00 AM


Visibility: N/A

Pressure: 30.32 "Hg

Humidity: 77%

Dew point: 52 °F

Location of KleppestøLocation

Historic Weather in Kleppestø — Graph

°F

Kleppestø temperature yesterday

Maximum temperature yesterday: 65 °F (at 3:00 PM)
Minimum temperature yesterday: 53 °F (at 5:00 AM)
Average temperature yesterday: 59 °F

Past Weeks' High & Low Weather Summary

 TemperatureHumidityPressure
High72 °F (Aug 31, 1:00 PM)90% (Aug 26, 8:00 AM)30.33 "Hg (Aug 26, 8:00 AM)
Low49 °F (Aug 24, 5:00 AM)37% (Aug 31, 2:00 PM)29.29 "Hg (Aug 19, 7:00 AM)
Average58 °F73%29.82 "Hg
* Reported Aug 19 7:00 AM — Sep 3 7:00 AM, Kleppestø, Weather by CustomWeather, © 2014

Note: Actual official high and low records may vary slightly from our data, if they occured in-between our weather recording intervals... More about our weather records

Advertising

Kleppestø weather history for previous 24 hours

 ConditionsComfort  
Time TempWeatherWind HumidityBarometerVisibility
7:00 AM
Sep 3
58 °FCool.3 mph80%30.31 "HgN/A
6:00 AM58 °FCool.3 mph81%30.32 "HgN/A
5:00 AM58 °FCool.2 mph81%30.32 "HgN/A
4:00 AM57 °FCool.2 mph83%30.32 "HgN/A
3:00 AM56 °FCool.1 mph83%30.32 "HgN/A
2:00 AM56 °FCool.1 mph84%30.33 "HgN/A
1:00 AM56 °FCool.2 mph84%30.32 "HgN/A
12:00 AM56 °FCool.2 mph84%30.32 "HgN/A
11:00 PM
Sep 2
56 °FPassing clouds.2 mph83%30.31 "Hg31 mi
10:00 PM57 °FCool.1 mph78%30.30 "HgN/A
9:00 PM58 °FCool.1 mph72%30.29 "HgN/A
8:00 PM60 °FPartly sunny.2 mph69%30.29 "Hg31 mi
7:00 PM61 °FCool.2 mph66%30.28 "HgN/A
6:00 PM62 °FMild.3 mph65%30.28 "HgN/A
5:00 PM65 °FOvercast.3 mph62%30.28 "Hg19 mi
4:00 PM65 °FMild.3 mph62%30.28 "HgN/A
3:00 PM65 °FMild.3 mph60%30.27 "HgN/A
2:00 PM64 °FOvercast.2 mph60%30.27 "Hg25 mi
1:00 PM63 °FMild.1 mph63%30.26 "HgN/A
12:00 PM62 °FCool.1 mph63%30.25 "HgN/A
11:00 AM62 °FCool.1 mph65%30.24 "HgN/A
10:00 AM60 °FCool.2 mph75%30.22 "HgN/A
9:00 AM55 °FCool.1 mph86%30.21 "HgN/A
Weather by CustomWeather, © 2014

See weather overviewHow to use our weather pages